sat.trackr.live / text

‹ back to catalog

STARLINK-6369

NORAD 57374 · 2023-099AY

PAYLOAD ACTIVE UNKNOWN

§ Identity

Operator
Country
US
Launch date
2023-07-16
Launch site
AFETR
Launch vehicle
Mass (kg)
RCS (m²)

Purposes: comms

External: N2YO · Heavens-Above · Gunter

§ Orbital elements

Epoch: 2026-05-25T00:56:14.116992Z

Period
94.27 min
Inclination
43.0011°
Eccentricity
0.0001412
Mean motion
15.27579281 rev/d
Perigee alt
482.1 km
Apogee alt
484.0 km
Semi-major
6,861.2 km
B*
3.5062e-5
RAAN
152.5725°
Arg perigee
267.3246°
Mean anomaly
92.7444°
Rev number
15,808

§ Raw data

STARLINK-63691 57374U 23099AY  26145.03905228  .00000703  00000+0  35062-4 0  99952 57374  43.0011 152.5725 0001412 267.3246  92.7444 15.27579281158081

JSON: /api/v1/satellites/57374 · /tle

For live sub-satellite position, see the globe view (requires WebGL).

§ Visibility from observer

Set your observer location to see the next 7 days of passes ≥ 10°. The values pass through the URL so the page stays shareable.

No JS? Fill the form by hand. The geolocation button needs JavaScript.